Location: St. Louis
(38.6270°N, 90.1994°W)
Time: 09:19:06
(UTC-06:00)

SR - Pass Details

Date: 07 December 2021
Orbit: 582 x 872 km, 66.7° (Epoch: 21 January)

Event Time Altitude Azimuth Distance (km) Brightness Sun altitude
Rises 06:24:15 0° 346° (NNW) 2,827 ? -8.1°
Reaches altitude 10° 06:27:03 10° 5° (N) 1,946 ? -7.6°
Maximum altitude 06:30:08 19° 51° (NE) 1,494 ? -7.0°
Drops below altitude 10° 06:33:19 10° 96° (E) 2,022 ? -6.5°
Sets 06:36:17 0° 114° (ESE) 2,981 ? -5.9°
